Year,Month,Day,Hour,Minute,Value (Times are PST for windgust in km/hr)
2008,12,31,00,00,1.60
2008,12,31,00,01,0.00
2008,12,31,00,02,0.00
2008,12,31,00,03,6.40
2008,12,31,00,04,3.20
2008,12,31,00,05,8.10
2008,12,31,00,06,6.40
2008,12,31,00,07,4.80
2008,12,31,00,08,4.80
2008,12,31,00,09,6.40
2008,12,31,00,10,3.20
2008,12,31,00,11,1.60
2008,12,31,00,12,0.00
2008,12,31,00,13,1.60
2008,12,31,00,14,1.60
2008,12,31,00,15,1.60
2008,12,31,00,16,6.40
2008,12,31,00,17,6.40
2008,12,31,00,18,3.20
2008,12,31,00,19,4.80
2008,12,31,00,20,1.60
2008,12,31,00,21,0.00
2008,12,31,00,22,1.60
2008,12,31,00,23,0.00
2008,12,31,00,24,0.00
2008,12,31,00,25,0.00
2008,12,31,00,26,0.00
2008,12,31,00,27,0.00
2008,12,31,00,28,1.60
2008,12,31,00,29,3.20
2008,12,31,00,30,3.20
2008,12,31,00,31,1.60
2008,12,31,00,32,1.60
2008,12,31,00,33,0.00
2008,12,31,00,34,0.00
2008,12,31,00,35,1.60
2008,12,31,00,36,1.60
2008,12,31,00,37,0.00
2008,12,31,00,38,0.00
2008,12,31,00,39,1.60
2008,12,31,00,40,0.00
2008,12,31,00,41,0.00
2008,12,31,00,42,0.00
2008,12,31,00,43,0.00
2008,12,31,00,44,0.00
2008,12,31,00,45,0.00
2008,12,31,00,46,0.00
2008,12,31,00,47,0.00
2008,12,31,00,48,1.60
2008,12,31,00,49,0.00
2008,12,31,00,50,0.00
2008,12,31,00,51,0.00
2008,12,31,00,52,0.00
2008,12,31,00,53,0.00
2008,12,31,00,54,0.00
2008,12,31,00,55,0.00
2008,12,31,00,56,3.20
2008,12,31,00,57,1.60
2008,12,31,00,58,9.60
2008,12,31,00,59,8.10
2008,12,31,01,00,16.10
2008,12,31,01,01,4.80
2008,12,31,01,02,3.20
2008,12,31,01,03,6.40
2008,12,31,01,04,12.90
2008,12,31,01,05,22.50
2008,12,31,01,06,25.70
2008,12,31,01,07,12.90
2008,12,31,01,08,32.20
2008,12,31,01,09,48.30
2008,12,31,01,10,33.80
2008,12,31,01,11,30.60
2008,12,31,01,12,37.00
2008,12,31,01,13,29.00
2008,12,31,01,14,30.60
2008,12,31,01,15,27.40
2008,12,31,01,16,29.00
2008,12,31,01,17,29.00
2008,12,31,01,18,35.40
2008,12,31,01,19,27.40
2008,12,31,01,20,45.10
2008,12,31,01,21,35.40
2008,12,31,01,22,38.60
2008,12,31,01,23,45.10
2008,12,31,01,24,25.70
2008,12,31,01,25,49.90
2008,12,31,01,26,32.20
2008,12,31,01,27,32.20
2008,12,31,01,28,27.40
2008,12,31,01,29,48.30
2008,12,31,01,30,24.20
2008,12,31,01,31,35.40
2008,12,31,01,32,17.70
2008,12,31,01,33,25.70
2008,12,31,01,34,24.20
2008,12,31,01,35,17.70
2008,12,31,01,36,14.50
2008,12,31,01,37,24.20
2008,12,31,01,38,19.30
2008,12,31,01,39,33.80
2008,12,31,01,40,24.20
2008,12,31,01,41,11.30
2008,12,31,01,42,9.60
2008,12,31,01,43,8.10
2008,12,31,01,44,11.30
2008,12,31,01,45,14.50
2008,12,31,01,46,17.70
2008,12,31,01,47,14.50
2008,12,31,01,48,20.90
2008,12,31,01,49,33.80
2008,12,31,01,50,22.50
2008,12,31,01,51,14.50
2008,12,31,01,52,22.50
2008,12,31,01,53,19.30
2008,12,31,01,54,20.90
2008,12,31,01,55,20.90
2008,12,31,01,56,22.50
2008,12,31,01,57,19.30
2008,12,31,01,58,19.30
2008,12,31,01,59,32.20
2008,12,31,02,00,22.50
2008,12,31,02,01,22.50
2008,12,31,02,02,20.90
2008,12,31,02,03,9.60
2008,12,31,02,04,19.30
2008,12,31,02,05,30.60
2008,12,31,02,06,27.40
2008,12,31,02,07,17.70
2008,12,31,02,08,24.20
2008,12,31,02,09,20.90
2008,12,31,02,10,27.40
2008,12,31,02,11,43.50
2008,12,31,02,12,20.90
2008,12,31,02,13,30.60
2008,12,31,02,14,37.00
2008,12,31,02,15,35.40
2008,12,31,02,16,32.20
2008,12,31,02,17,35.40
2008,12,31,02,18,25.70
2008,12,31,02,19,22.50
2008,12,31,02,20,30.60
2008,12,31,02,21,30.60
2008,12,31,02,22,40.20
2008,12,31,02,23,25.70
2008,12,31,02,24,19.30
2008,12,31,02,25,30.60
2008,12,31,02,26,25.70
2008,12,31,02,27,22.50
2008,12,31,02,28,35.40
2008,12,31,02,29,24.20
2008,12,31,02,30,19.30
2008,12,31,02,31,25.70
2008,12,31,02,32,27.40
2008,12,31,02,33,17.70
2008,12,31,02,34,19.30
2008,12,31,02,35,19.30
2008,12,31,02,36,19.30
2008,12,31,02,37,16.10
2008,12,31,02,38,14.50
2008,12,31,02,39,17.70
2008,12,31,02,40,20.90
2008,12,31,02,41,24.20
2008,12,31,02,42,30.60
2008,12,31,02,43,24.20
2008,12,31,02,44,30.60
2008,12,31,02,45,19.30
2008,12,31,02,46,38.60
2008,12,31,02,47,27.40
2008,12,31,02,48,20.90
2008,12,31,02,49,20.90
2008,12,31,02,50,29.00
2008,12,31,02,51,11.30
2008,12,31,02,52,14.50
2008,12,31,02,53,17.70
2008,12,31,02,54,16.10
2008,12,31,02,55,9.60
2008,12,31,02,56,9.60
2008,12,31,02,57,19.30
2008,12,31,02,58,27.40
2008,12,31,02,59,25.70
2008,12,31,03,00,25.70
2008,12,31,03,01,29.00
2008,12,31,03,02,24.20
2008,12,31,03,03,22.50
2008,12,31,03,04,25.70
2008,12,31,03,05,33.80
2008,12,31,03,06,17.70
2008,12,31,03,07,30.60
2008,12,31,03,08,29.00
2008,12,31,03,09,30.60
2008,12,31,03,10,37.00
2008,12,31,03,11,22.50
2008,12,31,03,12,25.70
2008,12,31,03,13,37.00
2008,12,31,03,14,25.70
2008,12,31,03,15,14.50
2008,12,31,03,16,17.70
2008,12,31,03,17,25.70
2008,12,31,03,18,27.40
2008,12,31,03,19,22.50
2008,12,31,03,20,16.10
2008,12,31,03,21,11.30
2008,12,31,03,22,9.60
2008,12,31,03,23,20.90
2008,12,31,03,24,20.90
2008,12,31,03,25,12.90
2008,12,31,03,26,9.60
2008,12,31,03,27,22.50
2008,12,31,03,28,8.10
2008,12,31,03,29,14.50
2008,12,31,03,30,43.50
2008,12,31,03,31,40.20
2008,12,31,03,32,16.10
2008,12,31,03,33,33.80
2008,12,31,03,34,40.20
2008,12,31,03,35,32.20
2008,12,31,03,36,20.90
2008,12,31,03,37,12.90
2008,12,31,03,38,29.00
2008,12,31,03,39,27.40
2008,12,31,03,40,30.60
2008,12,31,03,41,25.70
2008,12,31,03,42,30.60
2008,12,31,03,43,20.90
2008,12,31,03,44,22.50
2008,12,31,03,45,24.20
2008,12,31,03,46,24.20
2008,12,31,03,47,20.90
2008,12,31,03,48,24.20
2008,12,31,03,49,22.50
2008,12,31,03,50,30.60
2008,12,31,03,51,25.70
2008,12,31,03,52,6.40
2008,12,31,03,53,27.40
2008,12,31,03,54,16.10
2008,12,31,03,55,16.10
2008,12,31,03,56,24.20
2008,12,31,03,57,17.70
2008,12,31,03,58,14.50
2008,12,31,03,59,25.70
2008,12,31,04,00,25.70
2008,12,31,04,01,14.50
2008,12,31,04,02,22.50
2008,12,31,04,03,11.30
2008,12,31,04,04,11.30
2008,12,31,04,05,19.30
2008,12,31,04,06,11.30
2008,12,31,04,07,9.60
2008,12,31,04,08,9.60
2008,12,31,04,09,6.40
2008,12,31,04,10,9.60
2008,12,31,04,11,12.90
2008,12,31,04,12,11.30
2008,12,31,04,13,8.10
2008,12,31,04,14,12.90
2008,12,31,04,15,8.10
2008,12,31,04,16,4.80
2008,12,31,04,17,8.10
2008,12,31,04,18,9.60
2008,12,31,04,19,8.10
2008,12,31,04,20,3.20
2008,12,31,04,21,4.80
2008,12,31,04,22,6.40
2008,12,31,04,23,8.10
2008,12,31,04,24,3.20
2008,12,31,04,25,11.30
2008,12,31,04,26,16.10
2008,12,31,04,27,9.60
2008,12,31,04,28,8.10
2008,12,31,04,29,19.30
2008,12,31,04,30,17.70
2008,12,31,04,31,3.20
2008,12,31,04,32,8.10
2008,12,31,04,33,24.20
2008,12,31,04,34,32.20
2008,12,31,04,35,25.70
2008,12,31,04,36,32.20
2008,12,31,04,37,24.20
2008,12,31,04,38,25.70
2008,12,31,04,39,25.70
2008,12,31,04,40,24.20
2008,12,31,04,41,8.10
2008,12,31,04,42,19.30
2008,12,31,04,43,24.20
2008,12,31,04,44,17.70
2008,12,31,04,45,12.90
2008,12,31,04,46,19.30
2008,12,31,04,47,17.70
2008,12,31,04,48,17.70
2008,12,31,04,49,14.50
2008,12,31,04,50,14.50
2008,12,31,04,51,6.40
2008,12,31,04,52,11.30
2008,12,31,04,53,9.60
2008,12,31,04,54,6.40
2008,12,31,04,55,12.90
2008,12,31,04,56,8.10
2008,12,31,04,57,11.30
2008,12,31,04,58,6.40
2008,12,31,04,59,8.10
2008,12,31,05,00,6.40
2008,12,31,05,01,3.20
2008,12,31,05,02,4.80
2008,12,31,05,03,6.40
2008,12,31,05,04,3.20
2008,12,31,05,05,6.40
2008,12,31,05,06,4.80
2008,12,31,05,07,16.10
2008,12,31,05,08,16.10
2008,12,31,05,09,8.10
2008,12,31,05,10,3.20
2008,12,31,05,11,4.80
2008,12,31,05,12,1.60
2008,12,31,05,13,3.20
2008,12,31,05,14,11.30
2008,12,31,05,15,8.10
2008,12,31,05,16,4.80
2008,12,31,05,17,4.80
2008,12,31,05,18,4.80
2008,12,31,05,19,1.60
2008,12,31,05,20,4.80
2008,12,31,05,21,1.60
2008,12,31,05,22,1.60
2008,12,31,05,23,8.10
2008,12,31,05,24,9.60
2008,12,31,05,25,8.10
2008,12,31,05,26,4.80
2008,12,31,05,27,3.20
2008,12,31,05,28,3.20
2008,12,31,05,29,1.60
2008,12,31,05,30,4.80
2008,12,31,05,31,1.60
2008,12,31,05,32,4.80
2008,12,31,05,33,3.20
2008,12,31,05,34,1.60
2008,12,31,05,35,3.20
2008,12,31,05,36,4.80
2008,12,31,05,37,6.40
2008,12,31,05,38,4.80
2008,12,31,05,39,4.80
2008,12,31,05,40,4.80
2008,12,31,05,41,4.80
2008,12,31,05,42,1.60
2008,12,31,05,43,0.00
2008,12,31,05,44,9.60
2008,12,31,05,45,6.40
2008,12,31,05,46,6.40
2008,12,31,05,47,6.40
2008,12,31,05,48,14.50
2008,12,31,05,49,4.80
2008,12,31,05,50,1.60
2008,12,31,05,51,4.80
2008,12,31,05,52,6.40
2008,12,31,05,53,3.20
2008,12,31,05,54,1.60
2008,12,31,05,55,3.20
2008,12,31,05,56,4.80
2008,12,31,05,57,0.00
2008,12,31,05,58,1.60
2008,12,31,05,59,0.00
2008,12,31,06,00,0.00
2008,12,31,06,01,0.00
2008,12,31,06,02,0.00
2008,12,31,06,03,1.60
2008,12,31,06,04,4.80
2008,12,31,06,05,3.20
2008,12,31,06,06,3.20
2008,12,31,06,07,8.10
2008,12,31,06,08,6.40
2008,12,31,06,09,14.50
2008,12,31,06,10,6.40
2008,12,31,06,11,6.40
2008,12,31,06,12,4.80
2008,12,31,06,13,1.60
2008,12,31,06,14,11.30
2008,12,31,06,15,6.40
2008,12,31,06,16,1.60
2008,12,31,06,17,3.20
2008,12,31,06,18,1.60
2008,12,31,06,19,4.80
2008,12,31,06,20,6.40
2008,12,31,06,21,9.60
2008,12,31,06,22,4.80
2008,12,31,06,23,4.80
2008,12,31,06,24,3.20
2008,12,31,06,25,9.60
2008,12,31,06,26,6.40
2008,12,31,06,27,3.20
2008,12,31,06,28,0.00
2008,12,31,06,29,1.60
2008,12,31,06,30,1.60
2008,12,31,06,31,1.60
2008,12,31,06,32,4.80
2008,12,31,06,33,3.20
2008,12,31,06,34,4.80
2008,12,31,06,35,3.20
2008,12,31,06,36,1.60
2008,12,31,06,37,9.60
2008,12,31,06,38,9.60
2008,12,31,06,39,4.80
2008,12,31,06,40,1.60
2008,12,31,06,41,0.00
2008,12,31,06,42,0.00
2008,12,31,06,43,1.60
2008,12,31,06,44,0.00
2008,12,31,06,45,0.00
2008,12,31,06,46,3.20
2008,12,31,06,47,0.00
2008,12,31,06,48,1.60
2008,12,31,06,49,4.80
2008,12,31,06,50,3.20
2008,12,31,06,51,1.60
2008,12,31,06,52,1.60
2008,12,31,06,53,8.10
2008,12,31,06,54,6.40
2008,12,31,06,55,1.60
2008,12,31,06,56,3.20
2008,12,31,06,57,3.20
2008,12,31,06,58,3.20
2008,12,31,06,59,3.20
2008,12,31,07,00,1.60
2008,12,31,07,01,1.60
2008,12,31,07,02,3.20
2008,12,31,07,03,3.20
2008,12,31,07,04,1.60
2008,12,31,07,05,4.80
2008,12,31,07,06,6.40
2008,12,31,07,07,4.80
2008,12,31,07,08,3.20
2008,12,31,07,09,6.40
2008,12,31,07,10,8.10
2008,12,31,07,11,6.40
2008,12,31,07,12,11.30
2008,12,31,07,13,6.40
2008,12,31,07,14,9.60
2008,12,31,07,15,1.60
2008,12,31,07,16,0.00
2008,12,31,07,17,4.80
2008,12,31,07,18,9.60
2008,12,31,07,19,16.10
2008,12,31,07,20,14.50
2008,12,31,07,21,6.40
2008,12,31,07,22,4.80
2008,12,31,07,23,4.80
2008,12,31,07,24,4.80
2008,12,31,07,25,8.10
2008,12,31,07,26,8.10
2008,12,31,07,27,9.60
2008,12,31,07,28,14.50
2008,12,31,07,29,6.40
2008,12,31,07,30,3.20
2008,12,31,07,31,4.80
2008,12,31,07,32,11.30
2008,12,31,07,33,6.40
2008,12,31,07,34,6.40
2008,12,31,07,35,6.40
2008,12,31,07,36,3.20
2008,12,31,07,37,1.60
2008,12,31,07,38,0.00
2008,12,31,07,39,1.60
2008,12,31,07,40,3.20
2008,12,31,07,41,4.80
2008,12,31,07,42,1.60
2008,12,31,07,43,3.20
2008,12,31,07,44,3.20
2008,12,31,07,45,3.20
2008,12,31,07,46,0.00
2008,12,31,07,47,0.00
2008,12,31,07,48,1.60
2008,12,31,07,49,0.00
2008,12,31,07,50,0.00
2008,12,31,07,51,0.00
2008,12,31,07,52,1.60
2008,12,31,07,53,3.20
2008,12,31,07,54,3.20
2008,12,31,07,55,1.60
2008,12,31,07,56,1.60
2008,12,31,07,57,1.60
2008,12,31,07,58,3.20
2008,12,31,07,59,3.20
2008,12,31,08,00,1.60
2008,12,31,08,01,1.60
2008,12,31,08,02,1.60
2008,12,31,08,03,3.20
2008,12,31,08,04,4.80
2008,12,31,08,05,6.40
2008,12,31,08,06,4.80
2008,12,31,08,07,1.60
2008,12,31,08,08,3.20
2008,12,31,08,09,1.60
2008,12,31,08,10,1.60
2008,12,31,08,11,4.80
2008,12,31,08,12,6.40
2008,12,31,08,13,8.10
2008,12,31,08,14,8.10
2008,12,31,08,15,9.60
2008,12,31,08,16,9.60
2008,12,31,08,17,8.10
2008,12,31,08,18,11.30
2008,12,31,08,19,11.30
2008,12,31,08,20,6.40
2008,12,31,08,21,8.10
2008,12,31,08,22,8.10
2008,12,31,08,23,3.20
2008,12,31,08,24,1.60
2008,12,31,08,25,0.00
2008,12,31,08,26,0.00
2008,12,31,08,27,1.60
2008,12,31,08,28,6.40
2008,12,31,08,29,3.20
2008,12,31,08,30,4.80
2008,12,31,08,31,4.80
2008,12,31,08,32,6.40
2008,12,31,08,33,1.60
2008,12,31,08,34,0.00
2008,12,31,08,35,3.20
2008,12,31,08,36,1.60
2008,12,31,08,37,4.80
2008,12,31,08,38,6.40
2008,12,31,08,39,3.20
2008,12,31,08,40,1.60
2008,12,31,08,41,1.60
2008,12,31,08,42,3.20
2008,12,31,08,43,4.80
2008,12,31,08,44,4.80
2008,12,31,08,45,3.20
2008,12,31,08,46,1.60
2008,12,31,08,47,4.80
2008,12,31,08,48,3.20
2008,12,31,08,49,1.60
2008,12,31,08,50,1.60
2008,12,31,08,51,0.00
2008,12,31,08,52,0.00
2008,12,31,08,53,3.20
2008,12,31,08,54,1.60
2008,12,31,08,55,1.60
2008,12,31,08,56,1.60
2008,12,31,08,57,1.60
2008,12,31,08,58,0.00
2008,12,31,08,59,0.00
2008,12,31,09,00,0.00
2008,12,31,09,01,0.00
2008,12,31,09,02,0.00
2008,12,31,09,03,0.00
2008,12,31,09,04,0.00
2008,12,31,09,05,0.00
2008,12,31,09,06,0.00
2008,12,31,09,07,0.00
2008,12,31,09,08,0.00
2008,12,31,09,09,0.00
2008,12,31,09,10,0.00
2008,12,31,09,11,0.00
2008,12,31,09,12,0.00
2008,12,31,09,13,0.00
2008,12,31,09,14,0.00
2008,12,31,09,15,0.00
2008,12,31,09,16,0.00
2008,12,31,09,17,0.00
2008,12,31,09,18,0.00
2008,12,31,09,19,0.00
2008,12,31,09,20,0.00
2008,12,31,09,21,0.00
2008,12,31,09,22,0.00
2008,12,31,09,23,0.00
2008,12,31,09,24,0.00
2008,12,31,09,25,1.60
2008,12,31,09,26,6.40
2008,12,31,09,27,8.10
2008,12,31,09,28,4.80
2008,12,31,09,29,8.10
2008,12,31,09,30,3.20
2008,12,31,09,31,6.40
2008,12,31,09,32,8.10
2008,12,31,09,33,6.40
2008,12,31,09,34,8.10
2008,12,31,09,35,4.80
2008,12,31,09,36,3.20
2008,12,31,09,37,6.40
2008,12,31,09,38,8.10
2008,12,31,09,39,4.80
2008,12,31,09,40,6.40
2008,12,31,09,41,4.80
2008,12,31,09,42,4.80
2008,12,31,09,43,6.40
2008,12,31,09,44,6.40
2008,12,31,09,45,11.30
2008,12,31,09,46,11.30
2008,12,31,09,47,11.30
2008,12,31,09,48,6.40
2008,12,31,09,49,8.10
2008,12,31,09,50,4.80
2008,12,31,09,51,14.50
2008,12,31,09,52,12.90
2008,12,31,09,53,8.10
2008,12,31,09,54,8.10
2008,12,31,09,55,6.40
2008,12,31,09,56,8.10
2008,12,31,09,57,9.60
2008,12,31,09,58,8.10
2008,12,31,09,59,11.30
2008,12,31,10,00,6.40
2008,12,31,10,01,8.10
2008,12,31,10,02,12.90
2008,12,31,10,03,17.70
2008,12,31,10,04,8.10
2008,12,31,10,05,8.10
2008,12,31,10,06,20.90
2008,12,31,10,07,20.90
2008,12,31,10,08,9.60
2008,12,31,10,09,11.30
2008,12,31,10,10,16.10
2008,12,31,10,11,11.30
2008,12,31,10,12,11.30
2008,12,31,10,13,16.10
2008,12,31,10,14,9.60
2008,12,31,10,15,16.10
2008,12,31,10,16,17.70
2008,12,31,10,17,19.30
2008,12,31,10,18,8.10
2008,12,31,10,19,9.60
2008,12,31,10,20,11.30
2008,12,31,10,21,16.10
2008,12,31,10,22,11.30
2008,12,31,10,23,8.10
2008,12,31,10,24,8.10
2008,12,31,10,25,8.10
2008,12,31,10,26,16.10
2008,12,31,10,27,9.60
2008,12,31,10,28,16.10
2008,12,31,10,29,11.30
2008,12,31,10,30,11.30
2008,12,31,10,31,19.30
2008,12,31,10,32,27.40
2008,12,31,10,33,19.30
2008,12,31,10,34,16.10
2008,12,31,10,35,20.90
2008,12,31,10,36,19.30
2008,12,31,10,37,17.70
2008,12,31,10,38,12.90
2008,12,31,10,39,16.10
2008,12,31,10,40,27.40
2008,12,31,10,41,9.60
2008,12,31,10,42,20.90
2008,12,31,10,43,16.10
2008,12,31,10,44,20.90
2008,12,31,10,45,19.30
2008,12,31,10,46,9.60
2008,12,31,10,47,17.70
2008,12,31,10,48,27.40
2008,12,31,10,49,19.30
2008,12,31,10,50,16.10
2008,12,31,10,51,22.50
2008,12,31,10,52,19.30
2008,12,31,10,53,16.10
2008,12,31,10,54,20.90
2008,12,31,10,55,22.50
2008,12,31,10,56,22.50
2008,12,31,10,57,14.50
2008,12,31,10,58,20.90
2008,12,31,10,59,9.60
2008,12,31,11,00,19.30
2008,12,31,11,01,22.50
2008,12,31,11,02,25.70
2008,12,31,11,03,11.30
2008,12,31,11,04,22.50
2008,12,31,11,05,14.50
2008,12,31,11,06,37.00
2008,12,31,11,07,20.90
2008,12,31,11,08,17.70
2008,12,31,11,09,6.40
2008,12,31,11,10,14.50
2008,12,31,11,11,11.30
2008,12,31,11,12,14.50
2008,12,31,11,13,16.10
2008,12,31,11,14,22.50
2008,12,31,11,15,8.10
2008,12,31,11,16,6.40
2008,12,31,11,17,9.60
2008,12,31,11,18,6.40
2008,12,31,11,19,6.40
2008,12,31,11,20,9.60
2008,12,31,11,21,20.90
2008,12,31,11,22,17.70
2008,12,31,11,23,27.40
2008,12,31,11,24,20.90
2008,12,31,11,25,16.10
2008,12,31,11,26,16.10
2008,12,31,11,27,11.30
2008,12,31,11,28,20.90
2008,12,31,11,29,25.70
2008,12,31,11,30,9.60
2008,12,31,11,31,12.90
2008,12,31,11,32,9.60
2008,12,31,11,33,14.50
2008,12,31,11,34,16.10
2008,12,31,11,35,11.30
2008,12,31,11,36,6.40
2008,12,31,11,37,19.30
2008,12,31,11,38,11.30
2008,12,31,11,39,8.10
2008,12,31,11,40,11.30
2008,12,31,11,41,22.50
2008,12,31,11,42,6.40
2008,12,31,11,43,17.70
2008,12,31,11,44,17.70
2008,12,31,11,45,14.50
2008,12,31,11,46,11.30
2008,12,31,11,47,16.10
2008,12,31,11,48,9.60
2008,12,31,11,49,11.30
2008,12,31,11,50,22.50
2008,12,31,11,51,20.90
2008,12,31,11,52,14.50
2008,12,31,11,53,9.60
2008,12,31,11,54,14.50
2008,12,31,11,55,19.30
2008,12,31,11,56,19.30
2008,12,31,11,57,20.90
2008,12,31,11,58,17.70
2008,12,31,11,59,19.30
2008,12,31,12,00,32.20
2008,12,31,12,01,17.70
2008,12,31,12,02,8.10
2008,12,31,12,03,17.70
2008,12,31,12,04,25.70
2008,12,31,12,05,16.10
2008,12,31,12,06,16.10
2008,12,31,12,07,20.90
2008,12,31,12,08,16.10
2008,12,31,12,09,20.90
2008,12,31,12,10,30.60
2008,12,31,12,11,24.20
2008,12,31,12,12,22.50
2008,12,31,12,13,20.90
2008,12,31,12,14,22.50
2008,12,31,12,15,19.30
2008,12,31,12,16,29.00
2008,12,31,12,17,16.10
2008,12,31,12,18,20.90
2008,12,31,12,19,25.70
2008,12,31,12,20,29.00
2008,12,31,12,21,19.30
2008,12,31,12,22,17.70
2008,12,31,12,23,27.40
2008,12,31,12,24,24.20
2008,12,31,12,25,16.10
2008,12,31,12,26,24.20
2008,12,31,12,27,29.00
2008,12,31,12,28,16.10
2008,12,31,12,29,17.70
2008,12,31,12,30,25.70
2008,12,31,12,31,17.70
2008,12,31,12,32,24.20
2008,12,31,12,33,11.30
2008,12,31,12,34,14.50
2008,12,31,12,35,16.10
2008,12,31,12,36,35.40
2008,12,31,12,37,27.40
2008,12,31,12,38,24.20
2008,12,31,12,39,16.10
2008,12,31,12,40,25.70
2008,12,31,12,41,20.90
2008,12,31,12,42,20.90
2008,12,31,12,43,14.50
2008,12,31,12,44,20.90
2008,12,31,12,45,11.30
2008,12,31,12,46,6.40
2008,12,31,12,47,9.60
2008,12,31,12,48,16.10
2008,12,31,12,49,14.50
2008,12,31,12,50,16.10
2008,12,31,12,51,19.30
2008,12,31,12,52,20.90
2008,12,31,12,53,22.50
2008,12,31,12,54,20.90
2008,12,31,12,55,19.30
2008,12,31,12,56,6.40
2008,12,31,12,57,8.10
2008,12,31,12,58,27.40
2008,12,31,12,59,30.60
2008,12,31,13,00,17.70
2008,12,31,13,01,9.60
2008,12,31,13,02,22.50
2008,12,31,13,03,22.50
2008,12,31,13,04,17.70
2008,12,31,13,05,24.20
2008,12,31,13,06,25.70
2008,12,31,13,07,24.20
2008,12,31,13,08,22.50
2008,12,31,13,09,14.50
2008,12,31,13,10,24.20
2008,12,31,13,11,22.50
2008,12,31,13,12,33.80
2008,12,31,13,13,22.50
2008,12,31,13,14,24.20
2008,12,31,13,15,24.20
2008,12,31,13,16,14.50
2008,12,31,13,17,22.50
2008,12,31,13,18,32.20
2008,12,31,13,19,32.20
2008,12,31,13,20,27.40
2008,12,31,13,21,29.00
2008,12,31,13,22,32.20
2008,12,31,13,23,24.20
2008,12,31,13,24,20.90
2008,12,31,13,25,17.70
2008,12,31,13,26,38.60
2008,12,31,13,27,22.50
2008,12,31,13,28,20.90
2008,12,31,13,29,14.50
2008,12,31,13,30,17.70
2008,12,31,13,31,17.70
2008,12,31,13,32,22.50
2008,12,31,13,33,24.20
2008,12,31,13,34,24.20
2008,12,31,13,35,24.20
2008,12,31,13,36,30.60
2008,12,31,13,37,19.30
2008,12,31,13,38,17.70
2008,12,31,13,39,35.40
2008,12,31,13,40,19.30
2008,12,31,13,41,29.00
2008,12,31,13,42,25.70
2008,12,31,13,43,20.90
2008,12,31,13,44,24.20
2008,12,31,13,45,17.70
2008,12,31,13,46,22.50
2008,12,31,13,47,30.60
2008,12,31,13,48,33.80
2008,12,31,13,49,17.70
2008,12,31,13,50,27.40
2008,12,31,13,51,27.40
2008,12,31,13,52,14.50
2008,12,31,13,53,29.00
2008,12,31,13,54,20.90
2008,12,31,13,55,27.40
2008,12,31,13,56,27.40
2008,12,31,13,57,24.20
2008,12,31,13,58,11.30
2008,12,31,13,59,35.40
2008,12,31,14,00,24.20
2008,12,31,14,01,20.90
2008,12,31,14,02,27.40
2008,12,31,14,03,20.90
2008,12,31,14,04,24.20
2008,12,31,14,05,27.40
2008,12,31,14,06,24.20
2008,12,31,14,07,35.40
2008,12,31,14,08,37.00
2008,12,31,14,09,27.40
2008,12,31,14,10,25.70
2008,12,31,14,11,33.80
2008,12,31,14,12,33.80
2008,12,31,14,13,24.20
2008,12,31,14,14,25.70
2008,12,31,14,15,20.90
2008,12,31,14,16,32.20
2008,12,31,14,17,22.50
2008,12,31,14,18,14.50
2008,12,31,14,19,19.30
2008,12,31,14,20,30.60
2008,12,31,14,21,29.00
2008,12,31,14,22,35.40
2008,12,31,14,23,17.70
2008,12,31,14,24,25.70
2008,12,31,14,25,19.30
2008,12,31,14,26,16.10
2008,12,31,14,27,33.80
2008,12,31,14,28,25.70
2008,12,31,14,29,22.50
2008,12,31,14,30,29.00
2008,12,31,14,31,27.40
2008,12,31,14,32,30.60
2008,12,31,14,33,19.30
2008,12,31,14,34,25.70
2008,12,31,14,35,24.20
2008,12,31,14,36,29.00
2008,12,31,14,37,29.00
2008,12,31,14,38,24.20
2008,12,31,14,39,20.90
2008,12,31,14,40,25.70
2008,12,31,14,41,32.20
2008,12,31,14,42,27.40
2008,12,31,14,43,20.90
2008,12,31,14,44,17.70
2008,12,31,14,45,24.20
2008,12,31,14,46,20.90
2008,12,31,14,47,16.10
2008,12,31,14,48,20.90
2008,12,31,14,49,20.90
2008,12,31,14,50,16.10
2008,12,31,14,51,11.30
2008,12,31,14,52,30.60
2008,12,31,14,53,25.70
2008,12,31,14,54,11.30
2008,12,31,14,55,22.50
2008,12,31,14,56,20.90
2008,12,31,14,57,17.70
2008,12,31,14,58,17.70
2008,12,31,14,59,16.10
2008,12,31,15,00,14.50
2008,12,31,15,01,24.20
2008,12,31,15,02,24.20
2008,12,31,15,03,20.90
2008,12,31,15,04,11.30
2008,12,31,15,05,14.50
2008,12,31,15,06,16.10
2008,12,31,15,07,17.70
2008,12,31,15,08,16.10
2008,12,31,15,09,14.50
2008,12,31,15,10,9.60
2008,12,31,15,11,17.70
2008,12,31,15,12,14.50
2008,12,31,15,13,11.30
2008,12,31,15,14,9.60
2008,12,31,15,15,16.10
2008,12,31,15,16,16.10
2008,12,31,15,17,14.50
2008,12,31,15,18,8.10
2008,12,31,15,19,6.40
2008,12,31,15,20,9.60
2008,12,31,15,21,12.90
2008,12,31,15,22,14.50
2008,12,31,15,23,20.90
2008,12,31,15,24,14.50
2008,12,31,15,25,3.20
2008,12,31,15,26,16.10
2008,12,31,15,27,17.70
2008,12,31,15,28,14.50
2008,12,31,15,29,17.70
2008,12,31,15,30,9.60
2008,12,31,15,31,11.30
2008,12,31,15,32,6.40
2008,12,31,15,33,8.10
2008,12,31,15,34,8.10
2008,12,31,15,35,16.10
2008,12,31,15,36,9.60
2008,12,31,15,37,14.50
2008,12,31,15,38,14.50
2008,12,31,15,39,9.60
2008,12,31,15,40,8.10
2008,12,31,15,41,6.40
2008,12,31,15,42,9.60
2008,12,31,15,43,11.30
2008,12,31,15,44,20.90
2008,12,31,15,45,22.50
2008,12,31,15,46,9.60
2008,12,31,15,47,11.30
2008,12,31,15,48,19.30
2008,12,31,15,49,9.60
2008,12,31,15,50,11.30
2008,12,31,15,51,9.60
2008,12,31,15,52,16.10
2008,12,31,15,53,19.30
2008,12,31,15,54,17.70
2008,12,31,15,55,9.60
2008,12,31,15,56,9.60
2008,12,31,15,57,19.30
2008,12,31,15,58,16.10
2008,12,31,15,59,19.30
2008,12,31,16,00,8.10
2008,12,31,16,01,6.40
2008,12,31,16,02,11.30
2008,12,31,16,03,17.70
2008,12,31,16,04,20.90
2008,12,31,16,05,14.50
2008,12,31,16,06,11.30
2008,12,31,16,07,16.10
2008,12,31,16,08,9.60
2008,12,31,16,09,11.30
2008,12,31,16,10,8.10
2008,12,31,16,11,6.40
2008,12,31,16,12,8.10
2008,12,31,16,13,6.40
2008,12,31,16,14,16.10
2008,12,31,16,15,11.30
2008,12,31,16,16,8.10
2008,12,31,16,17,9.60
2008,12,31,16,18,14.50
2008,12,31,16,19,9.60
2008,12,31,16,20,11.30
2008,12,31,16,21,14.50
2008,12,31,16,22,19.30
2008,12,31,16,23,17.70
2008,12,31,16,24,11.30
2008,12,31,16,25,9.60
2008,12,31,16,26,9.60
2008,12,31,16,27,12.90
2008,12,31,16,28,9.60
2008,12,31,16,29,22.50
2008,12,31,16,30,11.30
2008,12,31,16,31,11.30
2008,12,31,16,32,17.70
2008,12,31,16,33,16.10
2008,12,31,16,34,16.10
2008,12,31,16,35,16.10
2008,12,31,16,36,17.70
2008,12,31,16,37,16.10
2008,12,31,16,38,14.50
2008,12,31,16,39,16.10
2008,12,31,16,40,17.70
2008,12,31,16,41,19.30
2008,12,31,16,42,12.90
2008,12,31,16,43,8.10
2008,12,31,16,44,8.10
2008,12,31,16,45,4.80
2008,12,31,16,46,4.80
2008,12,31,16,47,11.30
2008,12,31,16,48,24.20
2008,12,31,16,49,25.70
2008,12,31,16,50,16.10
2008,12,31,16,51,19.30
2008,12,31,16,52,11.30
2008,12,31,16,53,16.10
2008,12,31,16,54,4.80
2008,12,31,16,55,11.30
2008,12,31,16,56,11.30
2008,12,31,16,57,11.30
2008,12,31,16,58,16.10
2008,12,31,16,59,25.70
2008,12,31,17,00,22.50
2008,12,31,17,01,19.30
2008,12,31,17,02,17.70
2008,12,31,17,03,24.20
2008,12,31,17,04,24.20
2008,12,31,17,05,20.90
2008,12,31,17,06,17.70
2008,12,31,17,07,17.70
2008,12,31,17,08,19.30
2008,12,31,17,09,16.10
2008,12,31,17,10,16.10
2008,12,31,17,11,11.30
2008,12,31,17,12,22.50
2008,12,31,17,13,12.90
2008,12,31,17,14,16.10
2008,12,31,17,15,19.30
2008,12,31,17,16,16.10
2008,12,31,17,17,14.50
2008,12,31,17,18,22.50
2008,12,31,17,19,17.70
2008,12,31,17,20,20.90
2008,12,31,17,21,19.30
2008,12,31,17,22,19.30
2008,12,31,17,23,14.50
2008,12,31,17,24,14.50
2008,12,31,17,25,17.70
2008,12,31,17,26,17.70
2008,12,31,17,27,17.70
2008,12,31,17,28,20.90
2008,12,31,17,29,14.50
2008,12,31,17,30,16.10
2008,12,31,17,31,8.10
2008,12,31,17,32,11.30
2008,12,31,17,33,16.10
2008,12,31,17,34,11.30
2008,12,31,17,35,16.10
2008,12,31,17,36,8.10
2008,12,31,17,37,4.80
2008,12,31,17,38,8.10
2008,12,31,17,39,4.80